Погода в Сумках

Россия / Курганская область     55°02′49″N   65°43′51″E
темп.,
°C
ветер,
м/с
пор.,
м/с
влажн.,
%
обл.,
%
осадки,
мм/ч
давл.,
гПа
погр.,
м
4 июля, пн
пн423:00+14вюв11665 0.0 100511
02:00+13ссз11735 0.0 100310
05:00+12св358445 0.0 100380
08:00+14ссв699184 0.3 1003456
11:00+14ссв81090100 0.4 1003767
14:00+13ссв81388100 0.0 1003671
17:00+13ссв81383100 0.0 1003752
20:00+13ссв8137991 0.0 1003824
5 июля, вт
вт523:00+12с81380100 0.0 1003786
02:00+11с71385100 0.0 1002736
05:00+11с7138483 0.0 1003673
08:00+11с71284100 0.0 1004644
11:00+13с81077100 0.0 1005899
14:00+16с6106899 0.0 10061274
17:00+15с61063100 0.2 10071136
20:00+14с4117595 0.0 1008587
6 июля, ср
ср623:00+13ссз4969100 0.0 1009326
02:00+12ссз4968100 0.0 1009230
05:00+12ссз4968100 0.0 1009251
08:00+15с586933 0.0 1010464
11:00+14с3774100 0.0 1011409
14:00+16ссв576538 0.0 1012819
17:00+14св3880100 0.0 1012300
20:00+14ссв248634 0.0 1013129
7 июля, чт
чт723:00+14св238999 0.0 101378
02:00+13ссв2389100 0.0 101371
05:00+13ссв2490100 0.0 1014142
08:00+16св3482100 0.0 1015399
11:00+19ссв567241 0.0 1015855
14:00+21св556669 0.1 10151161
17:00+22св466312 0.1 10151337
20:00+19ссв37825 0.0 1015184
8 июля, пт
пт823:00+15св35925 1.1 101675
02:00+14св339225 0.0 101631
05:00+14ссв22900 0.0 101728
08:00+19ссв34740 0.0 1017294
11:00+23ссв345856 0.4 10171176
14:00+23всв345279 0.1 10161678
17:00+22всв2364100 0.2 1016169
20:00+20ссз116610 0.0 101611